Humidity-temperature Sensor

Selected Measurement Type: Relative Humidity

 
Relative Humidity [%]     6 entries per hour
Showing data from 12/9/2022 (11:00:00 Z) to 12/8/2022 (00:01:00 Z)
Previous Next [ Day | 3-Days | 7-Days ]
First Last
Prev [ Day | 3-Days | 7-Days ] Next
First Last

Start Time:     :
End Time:     :     
Time (in GMT) :00 :50 :40 :30 :20 :10
Previous Next [ Day | 3-Days | 7-Days ]
First Last
Prev [ Day | 3-Days | 7-Days ] Next
First Last


123 => good data
MM => data is determined as missing
-- => data not received/configured
Back to Top Back to Top
12/9/2022 11:00 to 10:10 94.50 95.05 95.53 95.67 96.41 96.78
12/9/2022 10:00 to 9:10 96.78 96.68 96.49 96.08 95.85 94.95
12/9/2022 09:00 to 8:10 94.33 93.80 94.50 94.56 94.87 94.95
12/9/2022 08:00 to 7:10 94.85 94.48 93.98 92.75 90.92 90.53
12/9/2022 07:00 to 6:10 90.49 90.51 90.90 91.19 91.52 91.70
12/9/2022 06:00 to 5:10 92.07 92.53 93.22 93.70 93.94 94.09
12/9/2022 05:00 to 4:10 94.35 94.33 94.66 95.07 95.03 95.22
12/9/2022 04:00 to 3:10 95.59 95.87 96.27 96.74 97.07 97.38
12/9/2022 03:00 to 2:10 97.99 98.32 98.61 98.98 99.43 99.74
12/9/2022 02:00 to 1:10 99.84 99.88 99.90 100.01 99.96 99.78
12/9/2022 01:00 to 0:10 99.72 99.64 99.64 99.35 99.27 98.94
12/9/2022 00:00 to 23:10 98.83 98.48 98.44 98.18 98.20 97.68
12/8/2022 23:00 to 22:10 97.62 97.52 97.21 97.09 96.53 96.74
12/8/2022 22:00 to 21:10 96.61 96.90 97.13 97.38 97.60 97.64
12/8/2022 21:00 to 20:10 97.83 97.89 98.14 98.44 98.55 98.59
12/8/2022 20:00 to 19:10 98.61 98.55 98.69 98.61 98.57 98.57
12/8/2022 19:00 to 18:10 98.51 98.07 97.79 96.92 96.06 95.75
12/8/2022 18:00 to 17:10 95.77 95.75 95.73 95.73 95.61 95.42
12/8/2022 17:00 to 16:10 95.16 94.95 94.44 93.92 93.20 92.40
12/8/2022 16:00 to 15:10 91.81 91.62 91.54 91.62 91.54 91.44
12/8/2022 15:00 to 14:10 91.42 91.27 90.61 90.51 90.20 89.05
12/8/2022 14:00 to 13:10 88.29 88.54 88.89 88.99 89.13 89.24
12/8/2022 13:00 to 12:10 89.20 89.55 89.48 89.61 89.18 88.91
12/8/2022 12:00 to 11:10 88.72 88.42 88.54 88.87 89.05 89.20
12/8/2022 11:00 to 10:10 89.36 89.30 89.28 89.55 89.44 89.59
12/8/2022 10:00 to 9:10 89.81 89.65 89.96 89.92 89.94 89.77
12/8/2022 09:00 to 8:10 90.22 90.47 90.43 90.47 90.39 90.53
12/8/2022 08:00 to 7:10 90.55 90.96 91.21 91.54 91.40 91.21
12/8/2022 07:00 to 6:10 91.17 91.21 91.42 91.50 91.54 91.83
12/8/2022 06:00 to 5:10 91.50 91.52 91.54 91.44 91.54 91.64
12/8/2022 05:00 to 4:10 91.27 90.98 91.05 90.86 91.15 91.29
12/8/2022 04:00 to 3:10 91.81 91.70 92.07 92.20 92.46 92.53
12/8/2022 03:00 to 2:10 92.69 92.63 92.65 92.98 93.49 93.78
12/8/2022 02:00 to 1:10 94.29 94.35 94.85 95.11 95.38 95.87
12/8/2022 01:00 to 0:10 95.61 96.06 96.04 96.16 96.33 96.33